Regional Weather Roundup
Issued by NWS

Home | Current Version | Previous Version | Text Only | Print | Product List | Glossary Off
Versions: 1 2 3 4 5 6 7 8 9 10 11 12 13 14 15 16 17 18 19 20 21 22 23 24 25 26 27 28 29 30 31 32 33 34 35 36 37 38 39 40 41 42 43 44 45 46 47 48 49 50

000
ASUS43 KLMK 040102
RWRKY
KENTUCKY REGIONAL WEATHER ROUNDUP
NATIONAL WEATHER SERVICE LOUISVILLE KY
800 PM EST TUE MAR 03 2015

NOTE "FAIR" INDICATES FEW OR NO CLOUDS BELOW 12,000 FEET
WITH NO SIGNIFICANT WEATHER AND/OR OBSTRUCTIONS TO VISIBILITY.

KYZ001>023-026-027-061>063-070>075-040200-
WESTERN AND SOUTH CENTRAL KENTUCKY

CITY           SKY/WX    TMP DP  RH WIND       PRES   REMARKS
PADUCAH        LGT RAIN  53  52  96 SW8       29.87R FOG
HENDERSON      CLOUDY    48  46  93 W8        29.88R
OWENSBORO      RAIN      52  51  96 NW9       29.88R FOG
HOPKINSVILLE   CLOUDY    60  58  94 SW9       29.88S
BOWLING GREEN  CLOUDY    61  58  90 SW10      29.89R
GLASGOW        NOT AVBL
$$

KYZ024-025-028>034-038-045-046-053-040200-
NORTH CENTRAL KENTUCKY

CITY           SKY/WX    TMP DP  RH WIND       PRES   REMARKS
LOUISVILLE/SDF LGT RAIN  57  55  93 W20       29.85R FOG
LOUISVILLE/LOU LGT RAIN  57  54  89 W12G26    29.85R FOG
FORT KNOX      LGT RAIN  59  57  93 W9        29.82S FOG
$$

KYZ035>037-039>044-047>052-055>060-089>105-040200-
NORTHEAST KENTUCKY

CITY           SKY/WX    TMP DP  RH WIND       PRES   REMARKS
LEXINGTON      CLOUDY    60  56  86 SW16      29.83S
COVINGTON      LGT RAIN  48  46  93 W16G23    29.82R
FRANKFORT      LGT RAIN  60  56  86 SW15      29.81R FOG
$$

KYZ054-064>069-076>088-106>120-040200-
SOUTHEAST KENTUCKY

CITY           SKY/WX    TMP DP  RH WIND       PRES   REMARKS
JACKSON        LGT RAIN  59  54  83 VRB7      29.88R
LONDON         CLOUDY    60  53  77 S10G20    29.92S
SOMERSET       NOT AVBL
MIDDLESBORO    FOG       40  40 100 CALM      30.00R VSB 1/2
MONTICELLO     CLOUDY    63  58  83 SW15      29.95S
$$




USA.gov is the U.S. government's official web portal to all federal, state and local government web resources and services.